Flag for Poland Weather past 2 weeks in Tarnów, Poland

Now
69 °F

Mild.


Feels Like: 69 °F
Forecast: 58 / 67 °F
Wind: 1 mph from Southwest

Location: Tarnow

Current Time: Jul 28, 2015 at 8:43:05 PM

Latest Report: Jul 28, 2015 at 8:00 PM


Visibility: 31 mi

Pressure: 29.75 "Hg

Humidity: 50%

Dew point: 49 °F

Location of TarnówLocation

Historic Weather in Tarnów — Graph

°F

Tarnów temperature yesterday

Maximum temperature yesterday: 72 °F (at 4:00 PM)
Minimum temperature yesterday: 53 °F (at 4:00 AM)
Average temperature yesterday: 65 °F

Past Weeks' High & Low Weather Summary

 TemperatureHumidityPressure
High94 °F (Jul 23, 12:00 PM)98% (Jul 16, 6:00 AM)30.14 "Hg (Jul 16, 6:00 AM)
Low53 °F (Jul 16, 5:00 AM)23% (Jul 18, 3:00 PM)29.62 "Hg (Jul 25, 4:00 PM)
Average71 °F68%29.92 "Hg
* Reported Jul 13 7:00 PM — Jul 28 7:00 PM, Tarnów, Weather by CustomWeather, © 2015

Note: Actual official high and low records may vary slightly from our data, if they occured in-between our weather recording intervals... More about our weather records

Advertising

Tarnów weather history for previous 24 hours

 ConditionsComfort  
Time TempWeatherWind HumidityBarometerVisibility
7:00 PM
Tue, Jul 28
71 °FMild.1 mph54%29.73 "Hg28 mi
6:00 PM74 °FMild.3 mph41%29.71 "Hg31 mi
5:00 PM77 °FPleasantly warm.2 mph39%29.71 "Hg22 mi
4:00 PM76 °FLight rain. Cloudy.3 mph35%29.73 "Hg18 mi
3:00 PM78 °FPleasantly warm.2 mph34%29.72 "Hg19 mi
2:00 PM78 °FPleasantly warm.2 mph33%29.72 "Hg19 mi
1:00 PM77 °FMild.3 mph37%29.73 "Hg31 mi
12:00 PM74 °FMild.3 mph43%29.75 "Hg22 mi
11:00 AM73 °FMild.3 mph47%29.76 "Hg22 mi
10:00 AM70 °FMild.3 mph52%29.77 "Hg28 mi
8:00 AM66 °FMild.1 mph68%29.76 "Hg31 mi
7:00 AM62 °FCool.1 mph79%29.76 "Hg31 mi
6:00 AM54 °FCool.No wind96%29.78 "Hg9 mi
4:00 AM57 °FCool.No wind87%29.76 "Hg31 mi
3:00 AM58 °FCool.1 mph84%29.75 "Hg31 mi
2:00 AM58 °FCool.1 mph87%29.74 "Hg31 mi
1:00 AM58 °FCool.No wind87%29.73 "Hg28 mi
12:00 AM60 °FCool.1 mph84%29.73 "Hg28 mi
10:00 PM
Mon, Jul 27
61 °FCool.No wind84%29.72 "Hg19 mi
9:00 PM64 °FMild.1 mph78%29.71 "Hg28 mi
8:00 PM67 °FDrizzle. Cloudy.2 mph66%29.68 "Hg22 mi
Weather by CustomWeather, © 2015

See weather overviewHow to use our weather pages